Flag for U.S.A. Weather past 2 weeks in Dover, Delaware, U.S.A.

Now
39 °F

Clear.


Feels Like: 36 °F
Forecast: 35 / 50 °F
Wind: 3 mph from Southeast

Location: Dover Air Force Base


UV Index: 3 (Moderate)

Visibility: 10 mi


Pressure: 30.47 "Hg

Humidity: 71%

Dew point: 30 °F

Location of DoverLocation

Historic Weather in Dover

°F

Dover temperature yesterday

Maximum temperature yesterday: 70 °F (at 2:58 PM)
Minimum temperature yesterday: 34 °F (at 11:58 PM)
Average temperature yesterday: 60 °F

Past Weeks' High & Low Weather Summary

 TemperatureHumidityPressure
High81 °F (Apr 13, 1:58 PM)100% (Apr 2, 3:58 AM)30.44 "Hg (Apr 2, 3:58 AM)
Low31 °F (Apr 16, 6:58 AM)26% (Apr 6, 1:58 PM)29.45 "Hg (Apr 8, 8:58 AM)
Average55 °F70%29.97 "Hg
* Reported Apr 1 7:58 PM — Apr 16 7:58 PM, Dover, Weather by CustomWeather, © 2014

Note: Actual official high and low records may vary slightly from our data, if they occured in-between our weather recording intervals... More about our weather records

Advertising

Historic Weather Conditions — Data for Previous 24 hours

 ConditionsComfort  
Time TempWeatherWind HumidityBarometerVisibility
7:58 PM
Apr 16
40 °FSunny.7 mph53%30.44 "Hg10 mi
6:58 PM46 °FSunny.8 mph38%30.42 "Hg10 mi
5:58 PM47 °FSunny.14 mph33%30.40 "Hg10 mi
4:58 PM48 °FSunny.16 mph35%30.39 "Hg10 mi
4:01 PM48 °FSunny.17 mph34%30.38 "Hg10 mi
2:58 PM47 °FSunny.20 mph36%30.40 "Hg10 mi
1:58 PM45 °FSunny.16 mph40%30.41 "Hg10 mi
12:58 PM43 °FSunny.13 mph42%30.40 "Hg10 mi
11:58 AM42 °FSunny.17 mph44%30.40 "Hg10 mi
10:58 AM39 °FSunny.18 mph45%30.41 "Hg10 mi
9:58 AM36 °FSunny.20 mph45%30.38 "Hg10 mi
8:58 AM34 °FSunny.21 mph48%30.34 "Hg10 mi
7:58 AM33 °FSunny.16 mph51%30.32 "Hg10 mi
6:58 AM31 °FClear.13 mph62%30.26 "Hg10 mi
5:58 AM31 °FClear.16 mph61%30.22 "Hg10 mi
4:58 AM33 °FClear.16 mph60%30.17 "Hg10 mi
3:58 AM35 °FClear.16 mph62%30.13 "Hg10 mi
2:58 AM36 °FClear.18 mph68%30.06 "Hg10 mi
1:58 AM36 °FPassing clouds.16 mph80%30.04 "Hg10 mi
12:58 AM35 °FPassing clouds.9 mph100%30.02 "Hg10 mi
12:03 AM34 °FRain. Fog.17 mph100%29.97 "Hg6 mi
11:58 PM
Apr 15
34 °FRain. Fog.20 mph100%29.98 "Hg6 mi
10:58 PM36 °FRain. Fog.17 mph100%29.96 "Hg6 mi
10:03 PM41 °FHeavy rain. Mostly cloudy.21 mph100%29.89 "Hg9 mi
Weather by CustomWeather, © 2014

See weather overview